Seldovia, AK

2:39 PM AKDT on September 24, 2017 (GMT -0800)
Seldovia

Weather History for PASO - February, 2013

Change the Weather History Date:

Wednesday, February 20, 2013

  Actual Average (PAHO) Record (PAHO)
Temperature  
Mean Temperature 30 °F -  
Max Temperature 33 °F 30 °F 48 °F (1934)
Min Temperature 26 °F 18 °F -6 °F (1954)
Degree Days  
Heating Degree Days 36    
Moisture  
Dew Point 26 °F    
Average Humidity 87    
Maximum Humidity 93    
Minimum Humidity 78    
Precipitation  
Precipitation 0.09 in - - ()
Sea Level Pressure  
Sea Level Pressure 29.11 in    
Wind  
Wind Speed 7 mph (NNE)    
Max Wind Speed 14 mph    
Max Gust Speed 24 mph    
Visibility 5 miles    
Events Fog , Snow    
Averages and records for this station are not official NWS values.
T = Trace of Precipitation, MM = Missing Value Source: NWS Daily Summary

Daily Weather History Graph

Daily Weather History Graph

Search for Another Location

Airport or City:

Trip Planner

Search our weather history database for the weather conditions in past years. The results will help you decide how hot, cold, wet, or windy it might be!

Date:

Astronomy

Feb. 20, 2013 Rise Set
Actual Time 8:27 AM AKST 6:14 PM AKST
Civil Twilight 7:45 AM AKST 6:56 PM AKST
Nautical Twilight 6:58 AM AKST 7:43 PM AKST
Astronomical Twilight 6:11 AM AKST 8:31 PM AKST
Moon 12:57 PM AKST (2/20) 5:44 AM AKST (2/20)
Length of Visible Light 11h 10m
Length of Day
9h 46m
Waxing Gibbous, 77% of the Moon is Illuminated
Feb 20
Waxing Gibbous
Feb 25
Full
Mar 4
Last Quarter
Mar 11
New
Mar 19
First Quarter

Hourly Weather History & Observations

Time (AKST) Temp. Windchill Dew Point Humidity Pressure Visibility Wind Dir Wind Speed Gust Speed Precip Events Conditions
12:34 AM 32.0 °F 22.5 °F 26.6 °F 80% 29.08 in 1.5 mi NNE 12.7 mph 24.2 mph 0.00 in Snow Light Snow
12:53 AM 32.0 °F 22.5 °F 28.0 °F 85% 29.08 in 2.0 mi NE 12.7 mph 20.7 mph 0.00 in Snow Light Snow
1:07 AM 32.0 °F 22.1 °F 26.6 °F 80% 29.07 in 2.5 mi NNE 13.8 mph 21.9 mph 0.00 in Snow Light Snow
1:14 AM 32.0 °F 23.0 °F 26.6 °F 80% 29.07 in 3.0 mi NNE 11.5 mph 20.7 mph 0.00 in Snow Light Snow
1:53 AM 33.1 °F 23.9 °F 27.0 °F 78% 29.06 in 5.0 mi NNE 12.7 mph 19.6 mph 0.00 in Snow Light Snow
3:53 AM 32.0 °F 25.6 °F 27.0 °F 82% 29.03 in 3.0 mi North 6.9 mph - 0.00 in Snow Light Snow
4:13 AM 32.0 °F 24.2 °F 28.4 °F 87% 29.02 in 2.5 mi North 9.2 mph - 0.00 in Snow Light Snow
4:42 AM 32.0 °F 24.2 °F 26.6 °F 80% 29.00 in 2.5 mi North 9.2 mph - 0.00 in Snow Light Snow
4:53 AM 30.9 °F 24.3 °F 28.0 °F 89% 29.01 in 2.5 mi North 6.9 mph - 0.00 in Snow Light Snow
5:02 AM 30.2 °F 23.4 °F 26.6 °F 86% 29.00 in 4.0 mi North 6.9 mph - 0.00 in Snow Light Snow
5:53 AM 30.9 °F 24.3 °F 27.0 °F 85% 28.99 in 10.0 mi Variable 6.9 mph - 0.00 in   Overcast
6:53 AM 30.0 °F 26.5 °F 27.0 °F 88% 28.98 in 10.0 mi North 3.5 mph - 0.00 in   Overcast
7:53 AM 30.0 °F 23.2 °F 25.0 °F 82% 28.98 in 10.0 mi North 6.9 mph - N/A   Overcast
8:53 AM 30.0 °F - 25.0 °F 82% 28.98 in 10.0 mi Calm Calm - 0.00 in   Overcast
9:53 AM 30.0 °F 22.4 °F 25.0 °F 82% 29.00 in 10.0 mi North 8.1 mph - N/A   Overcast
10:29 AM 30.2 °F 24.3 °F 26.6 °F 86% 29.00 in 2.0 mi North 5.8 mph - 0.00 in Snow Light Snow
10:51 AM 30.2 °F 23.4 °F 26.6 °F 86% 29.00 in 4.0 mi North 6.9 mph - 0.00 in Snow Light Snow
10:53 AM 30.0 °F 22.4 °F 26.1 °F 85% 29.00 in 4.0 mi North 8.1 mph - 0.00 in Snow Light Snow
11:53 AM 30.9 °F 26.2 °F 27.0 °F 85% 29.03 in 10.0 mi NNE 4.6 mph - 0.00 in   Overcast
12:53 PM 30.9 °F 23.5 °F 27.0 °F 85% 29.04 in 10.0 mi North 8.1 mph - 0.00 in   Overcast
1:04 PM 30.2 °F 24.3 °F 26.6 °F 86% 29.04 in 10.0 mi North 5.8 mph - N/A   Overcast
1:41 PM 30.2 °F 25.4 °F 26.6 °F 86% 29.06 in 9.0 mi Variable 4.6 mph - 0.00 in   Overcast
1:53 PM 30.0 °F - 26.1 °F 85% 29.06 in 4.0 mi Calm Calm - 0.00 in Snow Light Snow
2:16 PM 30.2 °F 26.7 °F 26.6 °F 86% 29.07 in 1.8 mi North 3.5 mph - 0.00 in Snow Light Snow
2:31 PM 30.2 °F 26.7 °F 26.6 °F 86% 29.07 in 3.0 mi North 3.5 mph - 0.01 in Snow Light Snow
2:53 PM 30.0 °F - 26.1 °F 85% 29.08 in 6.0 mi Calm Calm - 0.01 in Snow Light Snow
3:12 PM 30.2 °F - 26.6 °F 86% 29.09 in 1.8 mi Calm Calm - 0.00 in Snow Light Snow
3:39 PM 30.2 °F - 26.6 °F 86% 29.10 in 0.5 mi Calm Calm - 0.01 in Fog , Snow Snow
4:28 PM 28.4 °F - 24.8 °F 86% 29.13 in 0.8 mi Calm Calm - 0.03 in Snow Light Snow
4:53 PM 28.0 °F - 24.1 °F 85% 29.15 in 1.0 mi Calm Calm - 0.03 in Snow Light Snow
5:16 PM 26.6 °F 21.2 °F 24.8 °F 93% 29.16 in 1.0 mi South 4.6 mph - 0.01 in Snow Light Snow
5:29 PM 28.4 °F 22.2 °F 24.8 °F 86% 29.16 in 3.0 mi South 5.8 mph - 0.01 in Snow Light Snow
5:38 PM 28.4 °F 24.6 °F 24.8 °F 86% 29.17 in 3.0 mi SSE 3.5 mph - 0.01 in Snow Light Snow
5:53 PM 28.0 °F 24.2 °F 24.1 °F 85% 29.18 in 1.5 mi Variable 3.5 mph - 0.01 in Snow Light Snow
6:32 PM 28.4 °F - 26.6 °F 93% 29.19 in 1.2 mi Calm Calm - 0.02 in Snow Light Snow
6:53 PM 28.0 °F - 26.1 °F 92% 29.20 in 2.0 mi Calm Calm - 0.03 in Snow Light Snow
7:04 PM 28.4 °F - 26.6 °F 93% 29.20 in 2.5 mi Calm Calm - 0.00 in Snow Light Snow
7:12 PM 28.4 °F - 26.6 °F 93% 29.20 in 3.0 mi Calm Calm - 0.00 in Snow Light Snow
7:21 PM 28.4 °F - 26.6 °F 93% 29.21 in 3.0 mi Calm Calm - 0.00 in Snow Light Snow
7:30 PM 28.4 °F - 26.6 °F 93% 29.21 in 4.0 mi Calm Calm - 0.00 in Snow Light Snow
7:53 PM 28.0 °F - 26.1 °F 92% 29.22 in 4.0 mi Calm Calm - 0.00 in Snow Light Snow
8:10 PM 28.4 °F - 26.6 °F 93% 29.22 in 2.0 mi Calm Calm - 0.00 in Snow Light Snow
8:17 PM 28.4 °F - 26.6 °F 93% 29.22 in 1.8 mi Calm Calm - 0.00 in Snow Light Snow
8:24 PM 28.4 °F - 26.6 °F 93% 29.22 in 2.5 mi Calm Calm - 0.00 in Snow Light Snow
8:35 PM 28.4 °F - 26.6 °F 93% 29.22 in 3.0 mi Calm Calm - 0.01 in Snow Light Snow
8:53 PM 28.0 °F - 26.1 °F 92% 29.22 in 7.0 mi Calm Calm - 0.01 in   Overcast
9:12 PM 26.6 °F 22.6 °F 24.8 °F 93% 29.22 in 7.0 mi SSW 3.5 mph - 0.00 in Snow Light Snow
9:53 PM 28.9 °F 25.2 °F 27.0 °F 92% 29.23 in 10.0 mi SE 3.5 mph - 0.00 in   Overcast
10:53 PM 30.9 °F 27.5 °F 25.0 °F 79% 29.25 in 10.0 mi Variable 3.5 mph - N/A   Overcast
11:53 PM 30.0 °F 25.2 °F 24.1 °F 79% 29.26 in 10.0 mi South 4.6 mph - N/A   Overcast